EN

Hourly Weather Lukavac

Today, 5 December, Saturday

Time Temperature Precipitation Wind Pressure Humidity
00:00 +6°C° 0 mm 2 mps 721 mmHg 88%
01:00 +6°C° 0 mm 2 mps 721 mmHg 89%
02:00 +6°C° 0 mm 2 mps 721 mmHg 89%
03:00 +6°C° 0 mm 2 mps 721 mmHg 89%
04:00 +6°C° 0 mm 2 mps 721 mmHg 89%
05:00 +6°C° 0 mm 2 mps 722 mmHg 88%
06:00 +6°C° 0 mm 2 mps 722 mmHg 87%
07:00 +5°C° 0 mm 2 mps 722 mmHg 87%
08:00 +7°C° 0 mm 2 mps 722 mmHg 82%
09:00 +9°C° 0 mm 2 mps 723 mmHg 77%
10:00 +10°C° 0 mm 3 mps 723 mmHg 72%
11:00 +12°C° 0 mm 3 mps 723 mmHg 67%
12:00 +13°C° 0 mm 3 mps 723 mmHg 61%
13:00 +16°C° 0 mm 3 mps 723 mmHg 56%
14:00 +13°C° 0 mm 3 mps 723 mmHg 62%
15:00 +12°C° 0 mm 3 mps 723 mmHg 67%
16:00 +10°C° 0 mm 2 mps 723 mmHg 73%
17:00 +10°C° 0 mm 2 mps 723 mmHg 75%
18:00 +9°C° 0 mm 3 mps 724 mmHg 77%
19:00 +8°C° 0 mm 3 mps 724 mmHg 79%
20:00 +8°C° 0 mm 3 mps 724 mmHg 79%
21:00 +8°C° 0 mm 2 mps 724 mmHg 80%
22:00 +8°C° 0 mm 2 mps 724 mmHg 80%
23:00 +7°C° 0 mm 2 mps 724 mmHg 80%

Tomorrow, 6 December, Sunday

Time Temperature Precipitation Wind Pressure Humidity
00:00 +7°C° 0 mm 2 mps 724 mmHg 81%
01:00 +7°C° 0 mm 2 mps 724 mmHg 81%
02:00 +7°C° 0 mm 2 mps 724 mmHg 82%
03:00 +7°C° 0 mm 2 mps 724 mmHg 82%
04:00 +7°C° 0 mm 2 mps 724 mmHg 83%
05:00 +7°C° 0 mm 2 mps 723 mmHg 82%
06:00 +7°C° 0 mm 2 mps 723 mmHg 82%
07:00 +7°C° 0 mm 2 mps 723 mmHg 81%
08:00 +8°C° 0 mm 3 mps 723 mmHg 76%
09:00 +9°C° 0 mm 3 mps 723 mmHg 71%
10:00 +10°C° 0 mm 3 mps 723 mmHg 67%
11:00 +11°C° 0 mm 3 mps 722 mmHg 63%
12:00 +11°C° 0 mm 3 mps 721 mmHg 59%
13:00 +12°C° 0 mm 3 mps 721 mmHg 56%
14:00 +11°C° 0 mm 3 mps 720 mmHg 60%
15:00 +10°C° 0 mm 3 mps 720 mmHg 64%
16:00 +9°C° 0 mm 3 mps 719 mmHg 68%
17:00 +9°C° 0 mm 3 mps 719 mmHg 71%
18:00 +8°C° 0 mm 3 mps 719 mmHg 74%
19:00 +8°C° 0 mm 3 mps 718 mmHg 77%
20:00 +8°C° 0 mm 3 mps 718 mmHg 78%
21:00 +8°C° 0 mm 3 mps 718 mmHg 79%
22:00 +8°C° 0 mm 3 mps 718 mmHg 80%
23:00 +8°C° 0 mm 3 mps 718 mmHg 81%

Day after tomorrow, 7 December, Monday

Time Temperature Precipitation Wind Pressure Humidity
00:00 +8°C° 0 mm 2 mps 718 mmHg 81%
01:00 +7°C° 0 mm 2 mps 718 mmHg 82%
02:00 +7°C° 0 mm 2 mps 718 mmHg 83%
03:00 +7°C° 0 mm 2 mps 718 mmHg 84%
04:00 +7°C° 0 mm 2 mps 718 mmHg 84%
05:00 +7°C° 0 mm 2 mps 718 mmHg 85%
06:00 +7°C° 0 mm 2 mps 718 mmHg 86%
07:00 +7°C° 0 mm 2 mps 719 mmHg 87%
08:00 +9°C° 0 mm 1 mps 719 mmHg 83%
09:00 +10°C° 0 mm 1 mps 719 mmHg 79%
10:00 +11°C° 0 mm 1 mps 720 mmHg 75%
11:00 +11°C° 0 mm 1 mps 720 mmHg 71%
12:00 +12°C° 0 mm 1 mps 720 mmHg 67%
13:00 +13°C° 0 mm 1 mps 720 mmHg 63%
14:00 +12°C° 0 mm 1 mps 720 mmHg 67%
15:00 +11°C° 0 mm 1 mps 720 mmHg 71%
16:00 +10°C° 0 mm 1 mps 721 mmHg 75%
17:00 +9°C° 0 mm 1 mps 721 mmHg 77%
18:00 +8°C° 0 mm 1 mps 721 mmHg 79%
19:00 +8°C° 0 mm 1 mps 721 mmHg 81%
20:00 +7°C° 0 mm 1 mps 721 mmHg 82%
21:00 +7°C° 0 mm 1 mps 721 mmHg 83%
22:00 +6°C° 0 mm 1 mps 721 mmHg 83%
23:00 +6°C° 0 mm 1 mps 721 mmHg 82%

8 December, Tuesday

Time Temperature Precipitation Wind Pressure Humidity
00:00 +6°C° 0 mm 1 mps 721 mmHg 80%
01:00 +6°C° 0 mm 1 mps 721 mmHg 79%
02:00 +6°C° 0 mm 1 mps 721 mmHg 79%
03:00 +6°C° 0 mm 1 mps 721 mmHg 80%
04:00 +5°C° 0 mm 1 mps 721 mmHg 80%
05:00 +5°C° 0 mm 1 mps 721 mmHg 82%
06:00 +5°C° 0 mm 1 mps 721 mmHg 84%
07:00 +4°C° 0 mm 1 mps 721 mmHg 86%
08:00 +6°C° 0 mm 1 mps 721 mmHg 80%
09:00 +7°C° 0 mm 1 mps 722 mmHg 73%
10:00 +9°C° 0 mm 1 mps 722 mmHg 67%
11:00 +9°C° 0 mm 2 mps 721 mmHg 63%
12:00 +10°C° 0 mm 2 mps 721 mmHg 58%
13:00 +11°C° 0 mm 3 mps 721 mmHg 54%
14:00 +11°C° 0 mm 3 mps 720 mmHg 58%
15:00 +10°C° 0 mm 3 mps 720 mmHg 63%
16:00 +9°C° 0 mm 3 mps 720 mmHg 67%
17:00 +8°C° 0 mm 3 mps 719 mmHg 69%
18:00 +8°C° 0 mm 3 mps 719 mmHg 71%
19:00 +8°C° 0 mm 3 mps 719 mmHg 72%
20:00 +7°C° 0 mm 3 mps 719 mmHg 74%
21:00 +7°C° 0 mm 3 mps 718 mmHg 75%
22:00 +7°C° 0 mm 3 mps 718 mmHg 76%
23:00 +7°C° 0.1 mm 3 mps 718 mmHg 78%

9 December, Wednesday

Time Temperature Precipitation Wind Pressure Humidity
00:00 +6°C° 0.1 mm 2 mps 718 mmHg 80%
01:00 +6°C° 0.1 mm 2 mps 718 mmHg 82%
02:00 +6°C° 0 mm 2 mps 718 mmHg 83%
03:00 +6°C° 0 mm 2 mps 717 mmHg 84%
04:00 +5°C° 0 mm 2 mps 717 mmHg 85%
05:00 +5°C° 0 mm 2 mps 717 mmHg 86%
06:00 +5°C° 0 mm 2 mps 717 mmHg 86%
07:00 +5°C° 0 mm 2 mps 717 mmHg 87%
08:00 +6°C° 0 mm 2 mps 718 mmHg 82%
09:00 +7°C° 0 mm 2 mps 718 mmHg 77%
10:00 +8°C° 0 mm 2 mps 718 mmHg 71%
11:00 +9°C° 0.2 mm 2 mps 718 mmHg 71%
12:00 +9°C° 0.2 mm 3 mps 718 mmHg 71%
13:00 +9°C° 0.2 mm 3 mps 718 mmHg 71%
14:00 +8°C° 0.3 mm 3 mps 718 mmHg 75%
15:00 +8°C° 0.3 mm 3 mps 718 mmHg 79%
16:00 +7°C° 0.3 mm 3 mps 718 mmHg 83%
17:00 +7°C° 0 mm 2 mps 718 mmHg 84%
18:00 +6°C° 0 mm 2 mps 718 mmHg 86%
19:00 +6°C° 0 mm 2 mps 719 mmHg 88%
20:00 +6°C° 0 mm 1 mps 719 mmHg 89%
21:00 +6°C° 0 mm 1 mps 719 mmHg 89%
22:00 +6°C° 0 mm 1 mps 720 mmHg 89%
23:00 +6°C° 0 mm 1 mps 720 mmHg 90%

10 December, Thursday

Time Temperature Precipitation Wind Pressure Humidity
00:00 +5°C° 0 mm 1 mps 720 mmHg 90%
01:00 +4°C° 0 mm 0 mps 720 mmHg 90%
02:00 +4°C° 0 mm 0 mps 719 mmHg 90%
03:00 +4°C° 0 mm 0 mps 719 mmHg 91%
04:00 +4°C° 0 mm 0 mps 719 mmHg 91%
05:00 +5°C° 0 mm 1 mps 719 mmHg 92%
06:00 +5°C° 0 mm 1 mps 718 mmHg 94%
07:00 +5°C° 0 mm 1 mps 718 mmHg 95%
08:00 +5°C° 0.8 mm 1 mps 718 mmHg 95%
09:00 +4°C° 0.8 mm 2 mps 718 mmHg 95%
10:00 +3°C° 0.8 mm 3 mps 718 mmHg 96%
11:00 +3°C° 1.7 mm 3 mps 717 mmHg 96%
12:00 +3°C° 1.7 mm 3 mps 717 mmHg 96%
13:00 +3°C° 1.7 mm 3 mps 717 mmHg 96%
14:00 +3°C° 1.4 mm 3 mps 717 mmHg 96%
15:00 +3°C° 1.4 mm 3 mps 717 mmHg 96%
16:00 +3°C° 1.4 mm 3 mps 717 mmHg 96%
17:00 +3°C° 0.4 mm 3 mps 717 mmHg 95%
18:00 +3°C° 0.4 mm 3 mps 717 mmHg 94%
19:00 +3°C° 0.4 mm 3 mps 717 mmHg 93%
20:00 +4°C° 0 mm 2 mps 717 mmHg 92%
21:00 +4°C° 0 mm 2 mps 718 mmHg 90%
22:00 +4°C° 0 mm 2 mps 718 mmHg 89%
23:00 +3°C° 0 mm 2 mps 718 mmHg 90%
Show more